,

(GMT )
Clinton

Weather History for CWCL - September, 2012

Change the Weather History Date:

Saturday, September 8, 2012

  Actual Average Record
Temperature  
Mean Temperature 64 °F -  
Max Temperature 83 °F 63 °F 86 °F (2011)
Min Temperature 46 °F 38 °F 33 °F (2001)
Growing Degree Days 14 (Base 50)    
Moisture  
Dew Point 35 °F    
Average Humidity 39    
Maximum Humidity 71    
Minimum Humidity 7    
Precipitation  
Precipitation 0.04 in - - ()
Sea Level Pressure  
Sea Level Pressure 30.03 in    
Wind  
Wind Speed 5 mph ()    
Max Wind Speed 10 mph    
Max Gust Speed 20 mph    
Visibility 9.0 miles    
Events      
Averages and records for this station are not official NWS values.
T = Trace of Precipitation, MM = Missing Value Source: Averaged Metar Reports

Daily Weather History Graph

Daily Weather History Graph

Search for Another Location

Airport or City:

Trip Planner

Search our weather history database for the weather conditions in past years. The results will help you decide how hot, cold, wet, or windy it might be!

Date:

Astronomy

Sep. 08, 2012 Rise Set
Actual Time 6:31 AM PDT 7:34 PM PDT
Civil Twilight 5:57 AM PDT 8:08 PM PDT
Nautical Twilight 5:16 AM PDT 8:49 PM PDT
Astronomical Twilight 4:32 AM PDT 9:32 PM PDT
Moon 11:35 PM PDT (9/8) 3:06 PM PDT (9/8)
Length of Visible Light 14h 11m
Length of Day
13h 03m
Waning Gibbous, 48% of the Moon is Illuminated
Sep 8
Waning Gibbous
Sep 15
New
Sep 22
First Quarter
Sep 29
Full
Oct 8
Last Quarter

Hourly Weather History & Observations

Time (PDT) Temp. Windchill Dew Point Humidity Pressure Visibility Wind Dir Wind Speed Gust Speed Precip Events Conditions
12:00 AM 55.4 °F - 37.4 °F 51% 30.16 in 9.0 mi SW 4.6 mph - N/A   Clear
1:00 AM 53.6 °F - 37.4 °F 54% 30.15 in 9.0 mi WSW 3.5 mph - N/A   Clear
2:00 AM 51 °F - 38 °F 49% 30.13 in 9 mi SSW 3.5 mph - -  
2:00 AM 51.8 °F - 37.4 °F 58% 30.13 in 9.0 mi SSW 3.5 mph - N/A   Clear
3:00 AM 50.0 °F - 37.4 °F 62% 30.12 in 9.0 mi South 2.3 mph - N/A   Clear
4:00 AM 48.2 °F - 37.4 °F 66% 30.12 in 9.0 mi SSW 4.6 mph - N/A   Clear
5:00 AM 47 °F - 37 °F 57% 30.11 in 9 mi SW 4.6 mph - -  
5:00 AM 46.4 °F 44.3 °F 37.4 °F 71% 30.11 in 9.0 mi SW 4.6 mph - N/A   Clear
6:00 AM 46.4 °F 43.5 °F 37.4 °F 71% 30.11 in 9.0 mi SSW 5.8 mph - N/A   Clear
7:00 AM 50.0 °F - 39.2 °F 66% 30.11 in 9.0 mi SSW 5.8 mph - N/A   Clear
8:00 AM 53 °F - 41 °F 52% 30.11 in 9 mi SSW 5.8 mph - -  
8:00 AM 53.6 °F - 41.0 °F 62% 30.11 in 9.0 mi SSW 4.6 mph - N/A   Clear
9:00 AM 57.2 °F - 42.8 °F 59% 30.11 in 9.0 mi South 6.9 mph - N/A   Clear
10:00 AM 60.8 °F - 42.8 °F 52% 30.09 in 9.0 mi South 5.8 mph - N/A   Clear
11:00 AM 68 °F - 44 °F 30% 30.06 in 9 mi South 10.4 mph - -  
11:00 AM 68.0 °F - 42.8 °F 40% 30.06 in 9.0 mi South 9.2 mph - N/A   Clear
12:00 PM 71.6 °F - 42.8 °F 35% 30.03 in 9.0 mi South 9.2 mph - N/A   Clear
1:00 PM 77.0 °F - 41.0 °F 28% 30.00 in 9.0 mi South 8.1 mph 18.4 mph N/A   Clear
2:00 PM 81 °F - 37 °F 12% 29.98 in 9 mi SSW 9.2 mph - -  
2:00 PM 80.6 °F - 37.4 °F 21% 29.98 in 9.0 mi South 6.9 mph 18.4 mph N/A   Clear
3:00 PM 80.6 °F - 26.6 °F 14% 29.95 in 9.0 mi SSW 6.9 mph 19.6 mph N/A   Partly Cloudy
4:00 PM 78.8 °F - 28.4 °F 16% 29.95 in 9.0 mi WSW 9.2 mph - N/A   Partly Cloudy
5:00 PM 80 °F - 27 °F 7% 29.93 in 9 mi SW 6.9 mph - -  
5:00 PM 80.6 °F - 26.6 °F 14% 29.93 in 9.0 mi SW 8.1 mph - N/A   Partly Cloudy
6:00 PM 77.0 °F - 28.4 °F 17% 29.93 in 9.0 mi SW 4.6 mph - N/A   Partly Cloudy
7:00 PM 69.8 °F - 30.2 °F 23% 29.92 in 9.0 mi SW 3.5 mph - N/A   Clear
8:00 PM 63 °F - 29 °F 17% 29.93 in 9 mi West 5.8 mph - -  
8:00 PM 62.6 °F - 30.2 °F 30% 29.93 in 9.0 mi West 6.9 mph - N/A   Clear
9:00 PM 64.4 °F - 26.6 °F 24% 29.92 in 9.0 mi Calm Calm - N/A   Clear
10:00 PM 62.6 °F - 28.4 °F 27% 29.89 in 9.0 mi West 2.3 mph - N/A   Clear
11:00 PM 61 °F - 30 °F 19% 29.87 in 9 mi SW 3.5 mph - -  
11:00 PM 60.8 °F - 30.2 °F 31% 29.87 in 9.0 mi SW 4.6 mph - N/A   Clear